Location: Chevoux
(46.3801°N, 4.9476°E)
Time: 14:48:05
(UTC+00:00)

Tiangong - Visible Passes

Search period start: 23 September 2021 00:00
Search period end: 03 October 2021 00:00
Orbit: 382 x 385 km, 41.5° (Epoch: 22 September)

Date Brightness Start Highest point End Pass type
(mag) Time Alt. Az. Time Alt. Az. Time Alt. Az.
25 Sep 3.8 04:59:57 10° S 05:01:24 13° SSE 05:02:52 10° SE visible
27 Sep 3.4 04:35:57 10° SSW 04:38:11 18° SSE 04:40:26 10° ESE visible
28 Sep 3.7 03:38:29 13° SSE 03:38:32 13° SSE 03:39:59 10° SE visible
29 Sep 2.8 04:13:45 18° SSW 04:15:01 24° SSE 04:17:38 10° ESE visible
30 Sep 3.9 03:16:47 14° SE 03:16:47 14° SE 03:17:33 10° ESE visible
30 Sep 2.3 04:48:59 11° WSW 04:51:39 32° S 04:54:32 10° ESE visible
01 Oct 2.4 03:51:59 29° SSE 03:51:59 29° SSE 03:54:40 10° ESE visible
02 Oct 2.2 04:27:10 22° SW 04:28:32 33° S 04:31:26 10° ESE visible
